Regional Weather Roundup
Issued by NWS

Home | Current Version | Previous Version | Graphics & Text | Print | Product List | Glossary On
Versions: 1 2 3 4 5 6 7 8 9 10 11 12 13 14 15 16 17 18 19 20 21 22 23 24 25 26 27 28 29 30 31 32 33 34 35 36 37 38 39 40 41 42 43 44 45 46 47 48 49 50
507
ASUS43 KBIS 270802
RWRND

NORTH DAKOTA REGIONAL WEATHER ROUNDUP
NATIONAL WEATHER SERVICE BISMARCK ND
300 AM CDT FRI MAY 27 2016

NOTE: "FAIR" INDICATES FEW OR NO CLOUDS BELOW 12,000 FEET WITH NO
SIGNIFICANT WEATHER AND/OR OBSTRUCTIONS TO VISIBILITY.


NDZ001>003-009>011-017-270900-
NORTHWEST NORTH DAKOTA

CITY           SKY/WX    TMP DP  RH WIND       PRES   REMARKS
WILLISTON      CLEAR     50  48  93 N9        29.86S
MINOT          CLOUDY    57  54  89 SW5       29.82S
MINOT AFB      CLOUDY    54  53  96 NW6       29.82R
$$

NDZ018>021-031>035-040>046-270900-
SOUTHWEST NORTH DAKOTA

CITY           SKY/WX    TMP DP  RH WIND       PRES   REMARKS
BISMARCK       CLEAR     47  47 100 CALM      29.83F
DICKINSON      CLEAR     40  38  93 S6        29.84R
GARRISON         N/A     52  50  93 NW7       29.84R
HETTINGER ARPT CLEAR     33  32  96 NW3       29.86F
$$

NDZ004>008-012>016-024-026-027-054-270900-
NORTHEAST NORTH DAKOTA

CITY           SKY/WX    TMP DP  RH WIND       PRES   REMARKS
GRAND FORKS    CLOUDY    54  52  93 NW3       29.80R
GRND FRKS AFB  MOCLDY    51  51 100 SE5       29.80S FOG
DEVILS LAKE    CLEAR     52  51  97 SW6       29.82S
$$

NDZ022-023-025-028>030-036>039-047>053-270900-
SOUTHEAST NORTH DAKOTA

CITY           SKY/WX    TMP DP  RH WIND       PRES   REMARKS
FARGO          CLOUDY    58  55  90 E9        29.79F
JAMESTOWN      PTCLDY    53  52  96 N5        29.80S
$$





USA.gov is the U.S. government's official web portal to all federal, state and local government web resources and services.